Location: Gad�tanya
(48.0500°N, 20.8500°E)
Time: 11:54:25
(UTC+00:00)

Meteor 2-6 Rocket - Pass Details

Date: 05 July 2020
Orbit: 804 x 916 km, 81.3° (Epoch: 14 August)

Event Time Altitude Azimuth Distance (km) Brightness Sun altitude
Rises 23:27:39 0° 345° (NNW) 3,390 8.5 -18.5°
Reaches altitude 10° 23:30:07 10° 343° (NNW) 2,438 7.5 -18.4°
Maximum altitude 23:35:31 62° 264° (W) 912 4.2 -18.3°
Enters shadow 23:37:54 33° 195° (SSW) 1,346 4.7 -18.2°
